EW9827 Weather Reports


time (UTC)temp
C
wind
direction
speed
KPH
gust
KPH
rain 1hr
cm
rain 24hr
cm
rain mn
cm
humidity
%
barometer
mb
20260505083040 13 94 1.6 8.0 0.00 0.00 0.00 75 1006.8
20260505081504 13 94 3.2 14.5 0.00 0.00 0.00 75 1006.8
20260505080011 13 94 3.2 11.3 0.00 0.00 0.00 75 1006.9
20260505074502 13 94 6.4 20.9 0.00 0.00 0.00 77 1006.9
20260505073103 13 94 0.0 9.7 0.00 0.00 0.00 74 1007.0
20260505071601 13 94 4.8 12.9 0.00 0.00 0.00 74 1007.5
20260505070106 13 94 1.6 17.7 0.00 0.00 0.00 73 1006.8
20260505064559 13 94 3.2 14.5 0.00 0.00 0.00 73 1006.8
20260505063053 13 94 1.6 16.1 0.00 0.00 0.00 73 1007.0
20260505061612 13 94 1.6 17.7 0.00 0.00 0.00 74 1007.2
20260505060056 13 94 1.6 12.9 0.00 0.00 0.00 74 1007.2
20260505054554 13 94 3.2 11.3 0.00 0.00 0.00 74 1007.3
20260505053022 13 94 3.2 8.0 0.00 0.00 0.00 73 1007.4
20260505051516 13 94 0.0 8.0 0.00 0.00 0.00 73 1007.4
20260505041507 13 94 1.6 9.7 0.00 0.00 0.00 71 1007.9
20260505040005 13 94 1.6 11.3 0.00 0.00 0.00 70 1007.9
20260505034502 14 94 3.2 12.9 0.00 0.00 0.00 69 1008.0
20260505033105 14 94 3.2 9.7 0.00 0.00 0.00 70 1008.1
20260505031559 14 94 3.2 14.5 0.00 0.00 0.00 69 1008.2
20260505030056 14 94 3.2 16.1 0.00 0.00 0.00 69 1008.1
20260505024554 14 94 0.0 16.1 0.00 0.00 0.00 68 1008.1
20260505023051 15 94 0.0 12.9 0.00 0.00 0.00 66 1008.2
20260505021550 15 94 0.0 6.4 0.00 0.00 0.00 65 1008.2
20260505020020 15 94 0.0 19.3 0.00 0.00 0.00 63 1008.2
20260505014516 15 94 3.2 8.0 0.00 0.00 0.00 61 1008.2
20260505013043 15 94 0.0 4.8 0.00 0.00 0.00 60 1008.1
20260505011545 16 94 1.6 12.9 0.00 0.00 0.00 58 1007.9
20260505010043 16 94 3.2 12.9 0.00 0.00 0.00 57 1007.7
20260505004534 16 94 0.0 12.9 0.00 0.00 0.00 56 1007.6
20260505003031 16 94 1.6 11.3 0.00 0.00 0.00 54 1007.5
20260505001531 17 94 1.6 11.3 0.00 0.00 0.00 53 1007.5
20260505000040 17 94 3.2 12.9 0.00 0.00 0.00 53 1007.6
20260504234526 17 94 3.2 12.9 0.00 0.00 0.00 53 1007.4
20260504233019 18 94 1.6 25.7 0.00 0.00 0.00 51 1007.4
20260504231518 18 94 3.2 19.3 0.00 0.00 0.00 49 1007.5
20260504230046 19 94 8.0 33.8 0.00 0.00 0.00 47 1007.3
20260504224547 18 94 1.6 25.7 0.00 0.00 0.00 48 1007.3
20260504223042 18 94 3.2 14.5 0.00 0.00 0.00 48 1007.3
20260504221542 18 94 3.2 25.7 0.00 0.00 0.00 46 1007.5
20260504220047 18 94 4.8 20.9 0.00 0.00 0.00 46 1007.4
20260504214538 18 94 4.8 17.7 0.00 0.00 0.00 46 1007.3
20260504213045 19 94 4.8 20.9 0.00 0.00 0.00 44 1007.5
20260504211538 19 94 6.4 22.5 0.00 0.00 0.00 44 1007.6
20260504210025 19 93 4.8 19.3 0.00 0.00 0.00 42 1007.3
20260504204535 20 94 3.2 22.5 0.00 0.00 0.00 42 1007.4
20260504203051 20 93 8.0 22.5 0.00 0.00 0.00 40 1007.6
20260504201548 20 94 1.6 14.5 0.00 0.00 0.00 41 1007.6
20260504200016 20 93 3.2 27.4 0.00 0.00 0.00 37 1008.0
20260504194514 20 94 3.2 27.4 0.00 0.00 0.00 40 1008.4
20260504193008 20 93 4.8 17.7 0.00 0.00 0.00 35 1008.5
20260504191505 20 93 4.8 24.1 0.00 0.00 0.00 38 1008.5
20260504190002 20 94 4.8 16.1 0.00 0.00 0.00 40 1008.8
20260504184559 19 93 3.2 24.1 0.00 0.00 0.00 40 1009.2
20260504183103 19 94 6.4 29.0 0.00 0.00 0.00 39 1009.3
20260504181524 18 93 6.4 25.7 0.00 0.00 0.00 41 1009.4
20260504180022 18 93 8.0 20.9 0.00 0.00 0.00 43 1009.4
20260504174520 18 93 3.2 20.9 0.00 0.00 0.00 43 1009.8
20260504173016 18 93 8.0 25.7 0.00 0.00 0.00 43 1009.8
20260504171513 18 93 6.4 20.9 0.00 0.00 0.00 47 1010.2
20260504160104 16 93 6.4 20.9 0.00 0.00 0.00 50 1011.0